ZHONGXING-1D

Last updated on Thu Nov 21 2024 00:02:44 GMT+0000 (Coordinated Universal Time)

1 49505U 21114A 24325.57627247 -.00000335 00000+0 00000+0 0 9998 2 49505 0.0611 74.2243 0002641 193.7682 129.7459 1.00271930 11073
UTC large
Height (km)
Speed (km/s)
/
Latitude / Longitude
Inclination (degrees)
Orbital Period (minutes)
Azimuth
Elevation
Range (km)
Doppler Factor

Next 0 passes for location: London (51.5072 / 0.1276)

Sorry there are no passes over London.